Location: Newark
(44.3248°N, 23.7839°E)
Time: 06:16:36
(UTC+00:00)

FO-29 - Pass Details

Date: 25 April 2024
Orbit: 801 x 1320 km, 98.6° (Epoch: 28 May)

Event Time Altitude Azimuth Distance (km) Brightness Sun altitude
Rises 01:14:00 0° 9° (N) 4,188 13.7 -20.5°
Reaches altitude 10° 01:16:43 10° 4° (N) 3,265 12.9 -20.2°
Maximum altitude 01:23:56 48° 294° (WNW) 1,672 10.5 -19.2°
Enters shadow 01:27:58 27° 237° (WSW) 2,301 10.8 -18.7°
